STARLINK-35242, 65493

Orbit data source: Space-Track

STARLINK-35242, 65493 is a payload satellite owned by SpaceX/Seattle (US) in LEO that was launched on Fri, 05 Sep 2025 UTC via an FALCON 9 launch vehicle from the Air Force Eastern Test Range (AFETR). Payload-class satellites include a variety of spacecraft equipped with specific instruments for various scientific and technological missions. These include communications satellites like Starlink; space stations such as the ISS; scientific satellites like the Hubble; Earth observation satellites from companies like Planet Labs, Umbra, and HawkEye 360; GPS; miniature CubeSats for education and research; and military/defense satellites.

Loading next visibility...
Identifier
65493, 2025-198B
Orbit
LEO
Country
Flag of USUS
Related business
Manufacturer
SpaceX/Seattle
Mission
Operational Commercial Communications
Bus & Motor
STARLINK V2MO, Unknown motor
Mass
575 kg wet, ~530 kg dry
Launch date (UTC)
2025-09-05 (9 months ago)
Launch vehicle
FALCON 9
Launch site
Air Force Eastern Test Range (AFETR)
Object type
Payload
Rocket body
Debris
Shape & HBR
Box + 2 Pan, 17.7 m
Radar Cross Section
36.964 m², Large (>1 m²)

Expand to show TLE details & history
Last TLE update: 17 hours ago

TLE from 17 hours ago
0 STARLINK-35242
1 65493U 25198B   26171.20790164  .00019555  00000-0  58821-3 0  9990
2 65493  53.1585 152.8632 0001087  60.1082 300.0028 15.34409680 44344
Epoch: 2026-06-20T04:59Z
TLE epoch observation values (Epoch: 2026-06-20T04:59:22.701Z)
Latitude
-0.00007°
Longitude
169.59273°
Altitude
463.204 km
Speed
7.636 km/s
True Right ascension
10h 11m 27s
True Declination
0° 00' 00"
Sunlit
Object was in daylight at epoch
Visualization orbit readout
Latitude
Unknown
Longitude
Unknown
Altitude
Unknown
Speed
Unknown
Apparent Right ascension
Unknown
Apparent Declination
Unknown
Sunlit
N/A
Visualization observer readout
Local Sidereal Time
08:33:33
Azimuth
Unknown
Elevation
Unknown
Doppler factor
Unknown
Orbital elements
Apogee altitude
463.675 km
Perigee altitude
462.188 km
Semi-major axis
6,841.069 km
Eccentricity
0.00011
Inclination
53.1585°
RAAN
152.8632°
Arg. of periapsis
60.1082°
True anomaly
299.99201°
Mean anomaly
300.0028°
Eccentric anomaly
299.99741°
Mean motion
3.83581 °/min
Orbital period
93.85 mins
BSTAR
0.00058821
Loading maneuver chart data...
Computing Atmospheric mass density...
Loading historical data...
Loading historical data...
Loading historical data...
Loading historical data...
Loading historical data...
Loading historical data...
Loading historical data...

Documentation

Showing up to 5 results
|